Lebanon, NH

3:34 PM EDT on March 23, 2017 (GMT -0400)
Lebanon Municipal

Weather History for KLEB - October, 2013

Change the Weather History Date:

Thursday, October 24, 2013

  Actual Average Record
Temperature  
Mean Temperature 39 °F -  
Max Temperature 48 °F 58 °F 75 °F (1963)
Min Temperature 30 °F 33 °F 16 °F (1969)
Degree Days  
Heating Degree Days 26    
Moisture  
Dew Point 30 °F    
Average Humidity 66    
Maximum Humidity 86    
Minimum Humidity 41    
Precipitation  
Precipitation 0.00 in - - ()
Sea Level Pressure  
Sea Level Pressure 29.75 in    
Wind  
Wind Speed 5 mph (SW)    
Max Wind Speed 20 mph    
Max Gust Speed 26 mph    
Visibility 10 miles    
Events Rain    
Averages and records for this station are not official NWS values.
T = Trace of Precipitation, MM = Missing Value Source: NWS Daily Summary

Daily Weather History Graph

Daily Weather History Graph

Search for Another Location

Airport or City:

Trip Planner

Search our weather history database for the weather conditions in past years. The results will help you decide how hot, cold, wet, or windy it might be!

Date:

Astronomy

Oct. 24, 2013 Rise Set
Actual Time 7:14 AM EDT 5:51 PM EDT
Civil Twilight 6:45 AM EDT 6:20 PM EDT
Nautical Twilight 6:12 AM EDT 6:53 PM EDT
Astronomical Twilight 5:38 AM EDT 7:27 PM EDT
Moon 10:09 PM EDT (10/24) 12:18 PM EDT (10/24)
Length of Visible Light 11h 34m
Length of Day
10h 36m
Waning Gibbous, 71% of the Moon is Illuminated
Oct 24
Waning Gibbous
Oct 26
Last Quarter
Nov 3
New
Nov 10
First Quarter
Nov 17
Full

Hourly Weather History & Observations

Time (EDT) Temp. Windchill Dew Point Humidity Pressure Visibility Wind Dir Wind Speed Gust Speed Precip Events Conditions
12:53 AM 43.0 °F - 35.1 °F 74% 29.66 in 10.0 mi Calm Calm - 0.00 in Rain Light Rain
1:23 AM 42.8 °F - 35.6 °F 76% 29.66 in 10.0 mi Calm Calm - 0.00 in   Overcast
1:35 AM 42.8 °F - 33.8 °F 70% 29.66 in 10.0 mi Calm Calm - 0.00 in   Overcast
1:53 AM 41.0 °F - 35.1 °F 79% 29.67 in 10.0 mi Calm Calm - 0.00 in   Overcast
2:53 AM 37.9 °F - 34.0 °F 86% 29.68 in 10.0 mi Calm Calm - N/A   Mostly Cloudy
3:53 AM 36.0 °F - 32.0 °F 86% 29.68 in 10.0 mi Calm Calm - N/A   Clear
4:53 AM 34.0 °F 29.8 °F 30.0 °F 85% 29.70 in 10.0 mi SSE 4.6 mph - N/A   Clear
5:53 AM 30.9 °F - 27.0 °F 85% 29.73 in 10.0 mi Calm Calm - N/A   Clear
6:53 AM 30.9 °F 24.3 °F 27.0 °F 85% 29.73 in 10.0 mi South 6.9 mph - N/A   Clear
7:53 AM 30.0 °F - 26.1 °F 85% 29.75 in 10.0 mi Calm Calm - N/A   Clear
8:53 AM 39.9 °F 33.9 °F 27.0 °F 60% 29.74 in 10.0 mi SW 9.2 mph - N/A   Clear
9:53 AM 44.1 °F 37.7 °F 28.9 °F 55% 29.74 in 10.0 mi WSW 12.7 mph 21.9 mph N/A   Clear
10:53 AM 44.1 °F 36.8 °F 28.0 °F 53% 29.74 in 10.0 mi SW 16.1 mph 23.0 mph N/A   Partly Cloudy
11:53 AM 46.0 °F 38.5 °F 28.0 °F 50% 29.73 in 10.0 mi WSW 19.6 mph 25.3 mph N/A   Mostly Cloudy
12:53 PM 46.9 °F - 27.0 °F 46% 29.71 in 10.0 mi SW 15.0 mph 23.0 mph N/A   Mostly Cloudy
1:53 PM 48.0 °F - 25.0 °F 41% 29.71 in 10.0 mi SW 16.1 mph 26.5 mph N/A   Overcast
2:53 PM 46.9 °F - 27.0 °F 46% 29.72 in 10.0 mi WSW 16.1 mph 24.2 mph N/A   Mostly Cloudy
3:53 PM 48.0 °F - 27.0 °F 44% 29.73 in 10.0 mi SW 8.1 mph 20.7 mph N/A   Overcast
4:53 PM 46.9 °F - 27.0 °F 46% 29.75 in 10.0 mi WSW 13.8 mph 25.3 mph N/A   Overcast
5:53 PM 46.0 °F 40.6 °F 27.0 °F 47% 29.77 in 10.0 mi WSW 11.5 mph 20.7 mph N/A   Overcast
6:53 PM 45.0 °F 41.8 °F 28.0 °F 52% 29.79 in 10.0 mi WSW 5.8 mph - N/A   Mostly Cloudy
7:53 PM 43.0 °F 38.2 °F 28.9 °F 58% 29.81 in 10.0 mi WSW 8.1 mph - N/A   Partly Cloudy
8:53 PM 42.1 °F 38.4 °F 28.9 °F 60% 29.83 in 10.0 mi West 5.8 mph - N/A   Partly Cloudy
9:53 PM 43.0 °F 38.8 °F 30.9 °F 62% 29.84 in 10.0 mi NW 6.9 mph - N/A   Overcast
10:03 PM 42.8 °F 38.0 °F 32.0 °F 66% 29.84 in 10.0 mi NNW 8.1 mph - N/A   Overcast
10:42 PM 39.2 °F - 33.8 °F 81% 29.84 in 10.0 mi Calm Calm - 0.00 in   Mostly Cloudy
10:53 PM 37.0 °F - 33.1 °F 86% 29.86 in 10.0 mi Calm Calm - 0.00 in   Mostly Cloudy
11:53 PM 36.0 °F 32.1 °F 32.0 °F 86% 29.88 in 10.0 mi South 4.6 mph - N/A   Partly Cloudy